Flag for Germany Weather past 2 weeks in Meppen, Lower Saxony, Germany

Now
36 °F

Chilly.


Feels Like: 36 °F
Forecast: 43 / 50 °F
Wind: 2 mph from Southwest

Location: Meppen

Current Time: Mar 28, 2015 at 5:24:50 AM

Latest Report: Mar 28, 2015 at 3:00 AM


Visibility: 0 mi

Pressure: 30.18 "Hg

Humidity: 94%

Dew point: 34 °F

Location of MeppenLocation

Historic Weather in Meppen — Graph

°F

Meppen temperature yesterday

Maximum temperature yesterday: 45 °F (at 2:00 PM)
Minimum temperature yesterday: 41 °F (at 11:00 PM)
Average temperature yesterday: 44 °F

Past Weeks' High & Low Weather Summary

 TemperatureHumidityPressure
High62 °F (Mar 18, 3:00 PM)96% (Mar 18, 9:00 AM)30.44 "Hg (Mar 18, 9:00 AM)
Low26 °F (Mar 23, 6:00 AM)41% (Mar 24, 5:00 PM)29.68 "Hg (Mar 25, 1:00 PM)
Average41 °F77%30.14 "Hg
* Reported Mar 13 3:00 AM — Mar 28 3:00 AM, Meppen, Weather by CustomWeather, © 2015

Note: Actual official high and low records may vary slightly from our data, if they occured in-between our weather recording intervals... More about our weather records

Advertising

Meppen weather history for previous 24 hours

 ConditionsComfort  
Time TempWeatherWind HumidityBarometerVisibility
3:00 AM
Sat, Mar 28
36 °FChilly.2 mph94%30.18 "Hg1 mi
2:00 AM36 °FChilly.2 mph94%30.18 "Hg1 mi
1:00 AM36 °FChilly.1 mph92%30.19 "Hg1 mi
12:00 AM39 °FChilly.1 mph92%30.18 "Hg3 mi
11:00 PM
Fri, Mar 27
41 °FQuite cool.2 mph86%30.18 "Hg4 mi
10:00 PMN/APassing clouds.7 mphN/AN/A2 mi
9:00 PM44 °FQuite cool.3 mph76%30.15 "Hg6 mi
8:00 PM44 °FQuite cool.3 mph73%30.14 "Hg7 mi
7:00 PM44 °FQuite cool.3 mph71%30.10 "Hg7 mi
6:00 PM45 °FQuite cool.3 mph71%30.08 "Hg7 mi
5:00 PM45 °FCool.5 mph72%30.05 "Hg6 mi
3:00 PM45 °FCool.7 mph70%29.99 "Hg7 mi
2:00 PM45 °FCool.7 mph71%29.96 "Hg6 mi
12:00 PM44 °FSprinkles. Overcast.7 mph77%29.90 "Hg19 mi
11:00 AM43 °FSprinkles. Overcast.6 mph85%29.88 "Hg19 mi
9:00 AM44 °FOvercast.7 mph79%29.83 "Hg19 mi
8:00 AM42 °FOvercast.6 mph85%29.81 "Hg19 mi
7:00 AMN/APassing clouds.N/AN/AN/A4 mi
6:00 AM43 °FOvercast.5 mph86%29.76 "Hg16 mi
5:00 AM42 °FQuite cool.3 mph88%29.75 "Hg6 mi
Weather by CustomWeather, © 2015

See weather overviewHow to use our weather pages